This is the latest recevied weather packets stored in our database for station/object KD0SBN. If no packets are shown the sender has not sent any weather packets the latest 10 day(s).
| Time | Temp. | Humidity | Pressure | Rain* | Wind** | Luminosity | Snow |
|---|---|---|---|---|---|---|---|
| 1777836733 | 24.44° C | 21% | 1013.8 hPa | 0 mm | - | - | - |
| 1777836429 | 23.89° C | 20% | 1014.1 hPa | 0 mm | - | - | - |
| 1777836124 | 23.89° C | 20% | 1014.3 hPa | 0 mm | - | - | - |
| 1777835821 | 24.44° C | 19% | 1014.2 hPa | 0 mm | - | - | - |
| 1777835518 | 24.44° C | 21% | 1014.3 hPa | 0 mm | - | - | - |
| 1777835215 | 23.89° C | 20% | 1014.4 hPa | 0 mm | - | - | - |
| 1777834912 | 24.44° C | 21% | 1014.5 hPa | 0 mm | - | - | - |
| 1777834609 | 23.89° C | 21% | 1014.7 hPa | 0 mm | - | - | - |
| 1777834304 | 23.89° C | 21% | 1014.8 hPa | 0 mm | - | - | - |
| 1777833999 | 23.33° C | 21% | 1014.8 hPa | 0 mm | - | - | - |
| 1777833696 | 23.33° C | 21% | 1015 hPa | 0 mm | - | - | - |
| 1777833392 | 23.33° C | 21% | 1015.2 hPa | 0 mm | - | - | - |
| 1777833090 | 23.33° C | 21% | 1015.2 hPa | 0 mm | - | - | - |
| 1777832788 | 23.33° C | 23% | 1015.2 hPa | 0 mm | - | - | - |
| 1777832486 | 23.33° C | 23% | 1015.4 hPa | 0 mm | - | - | - |
| 1777832182 | 23.33° C | 23% | 1015.6 hPa | 0 mm | - | - | - |
| 1777831879 | 22.78° C | 23% | 1015.6 hPa | 0 mm | - | - | - |
| 1777831576 | 22.78° C | 24% | 1015.6 hPa | 0 mm | - | - | - |
| 1777831274 | 22.78° C | 24% | 1015.7 hPa | 0 mm | - | - | - |
| 1777830971 | 22.78° C | 23% | 1015.8 hPa | 0 mm | - | - | - |
| 1777830668 | 22.22° C | 23% | 1015.7 hPa | 0 mm | - | - | - |
| 1777830365 | 22.22° C | 23% | 1015.8 hPa | 0 mm | - | - | - |
| 1777830061 | 22.22° C | 22% | 1015.9 hPa | 0 mm | - | - | - |
| 1777829756 | 22.22° C | 23% | 1016.1 hPa | 0 mm | - | - | - |
| 1777829453 | 22.78° C | 23% | 1016.1 hPa | 0 mm | - | - | - |
* Rain latest hour (hover to see other rain measurements)
** Current wind speed in m/s (hover to see current wind gust speed)